Regional Weather Roundup
Issued by NWS

Home | Current Version | Previous Version | Graphics & Text | Print | Product List | Glossary On
Versions: 1 2 3 4 5 6 7 8 9 10 11 12 13 14 15 16 17 18 19 20 21 22 23 24 25 26 27 28 29 30 31 32 33 34 35 36 37 38 39 40 41 42 43 44 45 46 47 48 49 50
000
ASUS43 KDTX 270301
RWRMI
MICHIGAN HOURLY REGIONAL WEATHER ROUNDUP
NATIONAL WEATHER SERVICE DETROIT/PONTIAC MI
1000 PM EST SUN FEB 26 2017

NOTE: "FAIR" INDICATES FEW OR NO CLOUDS BELOW 12,000 FEET WITH NO
SIGNIFICANT WEATHER AND/OR OBSTRUCTION TO VISIBILITY.

MIZ047>049-052>055-059>063-066>070-074>076-081>083-270400-
SOUTHEAST LOWER MICHIGAN

CITY           SKY/WX    TMP DP  RH WIND       PRES   REMARKS
ADRIAN         FAIR      36  22  56 SW13      30.08R WCI  27
ALMA           FAIR      35  22  60 SW7       29.97R WCI  29
ANN ARBOR      FAIR      38  21  50 S12G23    30.04R WCI  30
BAD AXE        FAIR      36  22  58 SW9G16    29.95R WCI  29
CARO           FAIR      35  23  62 SW8       29.96R WCI  28
DETROIT CITY   CLOUDY    39  21  48 SW20G26   30.04R WCI  29
DETROIT        FAIR      39  21  48 SW20      30.07R WCI  29
FLINT          MOCLDY    38  22  52 SW12      29.99R WCI  30
GROSSE ILE     FAIR      39  21  48 SW16G24   30.06R WCI  30
HILLSDALE      FAIR      36  21  55 SW13      30.04R WCI  27
HOWELL         MOCLDY    38  20  48 SW10G18   30.00R WCI  31

CITY           SKY/WX    TMP DP  RH WIND       PRES   REMARKS
JACKSON        FAIR      39  20  46 SW15      30.03R WCI  31
LAMBERTVILLE   FAIR      39  20  46 SW8       30.09R WCI  34
LANSING        MOCLDY    38  22  52 SW12      29.99R WCI  30
LAPEER         MOCLDY    38  22  53 SW13      29.98S WCI  30
MASON          MOCLDY    38  25  58 SW6       30.01R WCI  34
MONROE         FAIR      38  22  53 SW12      30.07R WCI  30
MT. CLEMENS    MOCLDY    40  22  48 SW17G25   30.02R WCI  31
PONTIAC        MOCLDY    38  21  50 SW13      30.00R WCI  30
PORT HOPE        N/A     37  23  56 SW8G16    29.92R WCI  31
PORT HURON     CLOUDY    39  23  52 SW9       30.02R WCI  33
TRI CITIES     FAIR      36  25  64 SW13      29.96R WCI  27
MIDLAND        FAIR      35  22  58 SW8       29.95R WCI  29
TROY           FAIR      40  18  40 SW18G25   30.04R WCI  31
SAGINAW HB     FAIR      34  25  69 SW9       29.97R WCI  26
$$
MIZ043>046-050>051-056>058-064>065-071>073-077>080-270400-
SOUTHWEST LOWER MICHIGAN

CITY           SKY/WX    TMP DP  RH WIND       PRES   REMARKS
BATTLE CREEK   CLOUDY    41  22  46 SW21G29   30.02R
BENTON HARBOR  CLOUDY    43  20  39 SW14G28   30.03R
BIG RAPIDS     FAIR      34  26  72 SW7       29.93R WCI  27
COLDWATER      FAIR      38  19  47 SW13G20   30.04R WCI  30
FREMONT        FAIR      32  27  84 SW5       29.95R WCI  27
HOLLAND        CLOUDY    41  29  62 SW14      29.99R
GRAND RAPIDS   MOCLDY    38  24  57 SW10      29.97R WCI  31
IONIA          MOCLDY    37  22  55 S9        29.97R WCI  30
KALAMAZOO      CLOUDY    41  20  43 SW16G23   30.03R
LUDINGTON      FAIR      36  31  82 SW9       29.93R WCI  29
MARSHALL       CLOUDY    40  22  49 SW13G20   30.02R WCI  32
MOUNT PLEASANT FAIR      34  25  69 SW7       29.94R WCI  28
MUSKEGON       MOCLDY    41  30  65 SW15      29.97R
SOUTH HAVEN    CLOUDY    42  23  45 SW17G31   30.02R
$$
MIZ016>042-270400-
NORTHERN LOWER MICHIGAN

CITY           SKY/WX    TMP DP  RH WIND       PRES   REMARKS
ALPENA         FAIR      36  25  64 W12G20    29.85R WCI  28
BEAVER ISLAND  MOCLDY    30  23  75 W9G21     29.87R WCI  22
BELLAIRE       MOCLDY    36  28  73 SW5       29.88R WCI  32
CADILLAC       FAIR      31  24  78 SW10      29.88R WCI  22
CHARLEVOIX     CLOUDY    33  27  78 NW17      29.90R HAZE    WCI  22
FRANKFORT      CLOUDY    39  31  72 W20G26    29.90R WCI  29
GAYLORD        FAIR      33  24  69 SW16      29.83R WCI  23
GRAYLING       CLOUDY    34  26  72 SW10G18   29.87R WCI  26
HARBOR SPRINGS MOCLDY    33  24  70 W15G24    29.84R WCI  23
HOUGHTON LAKE  FAIR      33  24  69 SW12      29.89R WCI  24
MANISTEE       MOCLDY    39  27  62 SW14      29.91R WCI  31
OSCODA         FAIR      35  24  62 SW14G20   29.88S WCI  26
PELLSTON       FAIR      32  23  69 NW18      29.85R WCI  20
ROGERS CITY    FLURRIES  32  28  85 W18G29    29.84R WCI  21
TRAVERSE CITY  MOCLDY    38  27  64 SW8G20    29.88R WCI  32
$$
MIZ007>008-015-270400-
EASTERN UPPER MICHIGAN

CITY           SKY/WX    TMP DP  RH WIND       PRES   REMARKS
KINROSS        CLOUDY    26  21  81 W16G24    29.83R WCI  14
MACKINAC ISLAN FAIR      29  24  81 NW12G25   29.83R WCI  19
NEWBERRY       CLOUDY    25  17  74 W16G26    29.85R WCI  12
S. S. MARIE    FLURRIES  29  22  75 W20G28    29.82R WCI  16
MUNISING         N/A     24  10  55 NW7       29.89R WCI  16
$$
MIZ004>006-011>014-085-270400-
CENTRAL UPPER MICHIGAN

CITY           SKY/WX    TMP DP  RH WIND       PRES   REMARKS
MANISTIQUE     CLOUDY    25  18  74 W10       29.88R WCI  15
ESCANABA       MOCLDY    26  16  65 NW8       29.91R WCI  18
MENOMINEE      CLOUDY    32  20  61 NW3       29.91R
SAWYER-GWINN   CLEAR     18   9  68 W3        29.87R
$$
MIZ001>003-009>011-084-270400-
WESTERN UPPER MICHIGAN

CITY           SKY/WX    TMP DP  RH WIND       PRES   REMARKS
IRON MOUNTAIN  FAIR      21  12  68 NW10      29.88R WCI  10
HOUGHTON       FAIR      19   6  57 NW20      29.84R WCI   3
COPPER HARBOR    N/A     23  11  60 N23G32    29.86R WCI   7
IRONWOOD       FAIR      10   2  69 W3        29.91R
$$

ABBREVIATIONS USED IN REMARKS
   TC - TEMPERATURE IN CELSIUS
  WCI - WIND CHILL INDEX
   HX - HEAT INDEX
  VSB - VISIBILITY




USA.gov is the U.S. government's official web portal to all federal, state and local government web resources and services.